Regional Weather Roundup
Issued by NWS

Home | Current Version | Previous Version | Text Only | Print | Product List | Glossary Off
Versions: 1 2 3 4 5 6 7 8 9 10 11 12 13 14 15 16 17 18 19 20 21 22 23 24 25 26 27 28 29 30 31 32 33 34 35 36 37 38 39 40 41 42 43 44 45 46 47 48 49 50

000
ASUS43 KTOP 182208
RWRKS

WEATHER ROUNDUP FOR KANSAS
NATIONAL WEATHER SERVICE GOODLAND KS
500 PM CDT SAT APR 18 2015

NOTE:  "FAIR" INDICATES FEW OR NO CLOUDS BELOW 12,000 FEET WITH NO
SIGNIFICANT WEATHER AND/OR OBSTRUCTIONS TO VISIBILITY.

KSZ001>006-013>018-027>032-041>047-182300-
NORTHWEST KANSAS

CITY           SKY/WX    TMP DP  RH WIND       PRES   REMARKS
GOODLAND       PTSUNNY   56  44  64 E5        29.77F
HAYS           CLOUDY    57  46  67 SE15G22   29.77R THUNDER
HILL CITY      MOSUNNY   70  49  47 NE6       29.72F
RUSSELL        CLOUDY    61  47  59 SE14G26   29.75S
$$

KSZ061>065-074>080-084>089-182300-
SOUTHWEST KANSAS

CITY           SKY/WX    TMP DP  RH WIND       PRES   REMARKS
DODGE CITY     PTSUNNY   70  35  27 SW15G21   29.74F
ELKHART          N/A    N/A N/A N/A MISG        N/A
GARDEN CITY    PTSUNNY   66  37  34 W14       29.73F
GREAT BEND     CLOUDY    55  48  76 SE14      29.78  THUNDER
LIBERAL        PTSUNNY   63  34  34 W26G36    29.82R
PRATT          TSTM      55  46  71 SW23G30   29.83R
$$

KSZ066>073-081>083-090>101-182300-
SOUTHEAST KANSAS

CITY           SKY/WX    TMP DP  RH WIND       PRES   REMARKS
CHANUTE        CLOUDY    70  60  70 SE12      29.84F
COFFEYVILLE    PTSUNNY   70  60  70 E10       29.82F
HUTCHINSON     MOSUNNY   73  56  54 SE13      29.77
MEDICINE LODGE   N/A     59  50  72 SW6       29.80R
NEWTON         MOSUNNY   70  55  60 SE16      29.80F
PARSONS        CLOUDY    69  61  75 VRB6      29.85F
WICHITA INTL   PTSUNNY   74  55  51 SE21G26   29.77F
WICHITA JABRA  PTSUNNY   73  55  53 SE15      29.77F
WICHITA MCCONL MOSUNNY   72  56  56 SE18      29.77F
WINFIELD       MOSUNNY   74  58  57 SE14      29.79F
$$

KSZ007>012-019>026-033>040-048>060-102>105-182300-
NORTHEAST KANSAS

CITY           SKY/WX    TMP DP  RH WIND       PRES   REMARKS
CONCORDIA      MOSUNNY   72  52  49 SE5       29.75F
EMPORIA        MOSUNNY   67  59  75 SE13      29.80F
LAWRENCE       CLOUDY    64  58  80 SE6       29.85F
MANHATTAN      PTSUNNY   72  57  59 S15       29.79F
MARYSVILLE     CLOUDY    68  59  73 SE12      29.80F
OLATHE IND     CLOUDY    64  58  80 E6        29.85F
OLATHE EXE     CLOUDY    63  59  87 SE6       29.85F
SALINA         RAIN      60  51  72 W16       29.79S
TOPEKA BILLARD CLOUDY    66  58  75 SE8       29.83F
TOPEKA FORBES  CLOUDY    66  58  75 SE7       29.83F
$$


USA.gov is the U.S. government's official web portal to all federal, state and local government web resources and services.